QPF
0.00 0.00 0.00 0.00 0.00 0.00 0.00 0.00 0.00 0.00 0.00 0.00 0.00 0.00 0.00 0.00 0.00 0.00 0.00 0.00 0.00 0.00 0.00 0.00 0.00 0.00 0.00 0.00 0.00 0.00 0.00 0.00 0.00 0.00 0.00 0.00 0.00 0.00 0.00 0.00 0.00 0.00 0.00
0.00 0.00 0.00 0.00 0.00 0.00 0.00 0.00 0.00 0.00 0.00 0.00 0.00 0.00 0.00 0.00 0.00 0.00 0.00 0.00 0.00 0.00 0.00 0.00 0.00 0.00 0.00 0.00 0.00 0.00 0.00 0.00 0.00 0.00 0.00 0.00 0.00 0.00 0.00 0.00 0.00 0.00 0.00
0.00 0.00 0.00 0.00 0.00 0.00 0.00 0.00 0.00 0.00 0.00 0.00 0.00 0.00 0.00 0.00 0.00 0.00 0.00 0.00 0.00 0.00 0.00 0.00 0.00 0.00 0.00 0.00 0.00 0.00 0.00 0.00 0.00 0.00 0.00 0.00 0.00 0.00 0.00 0.00 0.00 0.00 0.00
0.00 0.00 0.00 0.00 0.00 0.00 0.00 0.00 0.00 0.00 0.00 0.00 0.00 0.00 0.00 0.00 0.00 0.00 0.00 0.00 0.00 0.00 0.00 0.00 0.00 0.00 0.00 0.00 0.00 0.00 0.00 0.00 0.00 0.00 0.00 0.00 0.00 0.00 0.00 0.00 0.00 0.00 0.00
0.00 0.00 0.00 0.00 0.00 0.00 0.00 0.00 0.00 0.00 0.00 0.00 0.00 0.00 0.00 0.00 0.00 0.00 0.00 0.00 0.00 0.00 0.00 0.00 0.00 0.00 0.00 0.00 0.00 0.00 0.00 0.00 0.00 0.00 0.00 0.00 0.00 0.00 0.00 0.00 0.00 0.00 0.00
0.00 0.00 0.00 0.00 0.00 0.00 0.00 0.00 0.00 0.00 0.00 0.00 0.00 0.00 0.00 0.00 0.00 0.00 0.00 0.00 0.00 0.00 0.00 0.00 0.00 0.00 0.00 0.00 0.00 0.00 0.00 0.00 0.00 0.00 0.00 0.00 0.00 0.00 0.00 0.00 0.00 0.00 0.01
0.00 0.00 0.00 0.00 0.00 0.00 0.00 0.00 0.00 0.00 0.00 0.00 0.00 0.00 0.00 0.00 0.00 0.00 0.00 0.00 0.00 0.00 0.00 0.00 0.00 0.00 0.00 0.00 0.00 0.00 0.00 0.00 0.00 0.00 0.00 0.00 0.00 0.00 0.00 0.01 0.00 0.01 0.00
0.00 0.00 0.00 0.00 0.00 0.00 0.00 0.00 0.00 0.00 0.00 0.00 0.00 0.00 0.00 0.00 0.00 0.00 0.00 0.00 0.00 0.00 0.00 0.00 0.00 0.00 0.00 0.00 0.00 0.00 0.00 0.00 0.00 0.00 0.00 0.00 0.00 0.00 0.02 0.02 0.02 0.02 0.01
0.00 0.00 0.00 0.00 0.00 0.00 0.00 0.00 0.00 0.00 0.00 0.00 0.00 0.00 0.00 0.00 0.00 0.00 0.00 0.00 0.00 0.00 0.00 0.00 0.00 0.00 0.00 0.00 0.00 0.00 0.00 0.00 0.00 0.00 0.02 0.04 0.02 0.03 0.02 0.02 0.01 0.01 0.00
0.00 0.00 0.00 0.00 0.00 0.00 0.00 0.00 0.00 0.00 0.00 0.00 0.00 0.00 0.00 0.00 0.00 0.00 0.00 0.00 0.00 0.00 0.00 0.00 0.00 0.00 0.00 0.00 0.00 0.00 0.00 0.00 0.00 0.03 0.06 0.07 0.06 0.04 0.04 0.01 0.01 0.02 0.01
0.00 0.00 0.00 0.00 0.00 0.00 0.00 0.00 0.00 0.00 0.00 0.00 0.00 0.00 0.00 0.00 0.00 0.00 0.00 0.00 0.00 0.00 0.00 0.00 0.00 0.00 0.00 0.00 0.00 0.00 0.00 0.00 0.01 0.07 0.09 0.08 0.06 0.05 0.05 0.03 0.03 0.06 0.05
0.00 0.00 0.00 0.00 0.00 0.00 0.00 0.00 0.00 0.00 0.00 0.00 0.00 0.00 0.00 0.00 0.00 0.00 0.00 0.00 0.00 0.00 0.00 0.00 0.00 0.00 0.00 0.00 0.00 0.00 0.04 0.05 0.15 0.30 0.19 0.11 0.06 0.05 0.01 0.03 0.04 0.06 0.07
0.00 0.00 0.00 0.00 0.00 0.00 0.00 0.00 0.00 0.00 0.00 0.00 0.00 0.00 0.00 0.00 0.00 0.00 0.00 0.00 0.00 0.00 0.00 0.00 0.00 0.00 0.00 0.01 0.01 0.10 0.39 0.44 0.41 0.29 0.14 0.06 0.02 0.03 0.02 0.04 0.06 0.07 0.06
0.00 0.00 0.00 0.00 0.00 0.00 0.00 0.00 0.00 0.00 0.00 0.00 0.00 0.00 0.00 0.00 0.00 0.00 0.00 0.00 0.00 0.00 0.00 0.00 0.00 0.00 0.00 0.01 0.01 0.08 0.25 0.32 0.23 0.11 0.07 0.06 0.03 0.02 0.04 0.07 0.05 0.05 0.04
0.00 0.00 0.00 0.00 0.00 0.00 0.00 0.00 0.00 0.00 0.00 0.00 0.00 0.00 0.00 0.00 0.00 0.00 0.00 0.00 0.00 0.00 0.00 0.00 0.00 0.00 0.00 0.00 0.00 0.01 0.11 0.23 0.16 0.16 0.16 0.11 0.05 0.06 0.07 0.05 0.07 0.05 0.01
0.00 0.00 0.00 0.00 0.00 0.00 0.00 0.00 0.00 0.00 0.00 0.00 0.00 0.00 0.00 0.00 0.00 0.00 0.00 0.00 0.00 0.00 0.00 0.00 0.00 0.01 0.02 0.05 0.05 0.04 0.09 0.13 0.14 0.16 0.15 0.12 0.07 0.06 0.03 0.01 0.02 0.01 0.01
0.00 0.00 0.00 0.00 0.00 0.00 0.00 0.00 0.00 0.00 0.00 0.00 0.00 0.00 0.00 0.00 0.00 0.00 0.00 0.00 0.00 0.00 0.00 0.00 0.00 0.00 0.01 0.01 0.04 0.04 0.07 0.13 0.14 0.13 0.10 0.08 0.06 0.04 0.02 0.01 0.01 0.00 0.00
0.00 0.00 0.00 0.00 0.00 0.00 0.00 0.00 0.00 0.00 0.00 0.00 0.00 0.00 0.00 0.00 0.00 0.00 0.00 0.00 0.00 0.00 0.00 0.00 0.00 0.00 0.00 0.00 0.00 0.01 0.06 0.08 0.06 0.06 0.08 0.06 0.02 0.01 0.00 0.00 0.00 0.00 0.00
0.00 0.00 0.00 0.00 0.00 0.00 0.00 0.01 0.00 0.00 0.00 0.00 0.00 0.00 0.00 0.00 0.00 0.00 0.00 0.00 0.00 0.00 0.00 0.00 0.00 0.00 0.00 0.00 0.00 0.00 0.02 0.03 0.04 0.05 0.04 0.03 0.01 0.00 0.00 0.00 0.00 0.00 0.00
0.00 0.00 0.00 0.00 0.00 0.00 0.00 0.00 0.00 0.00 0.00 0.00 0.00 0.00 0.00 0.00 0.00 0.00 0.00 0.00 0.00 0.00 0.00 0.01 0.00 0.00 0.01 0.00 0.01 0.01 0.01 0.02 0.02 0.03 0.01 0.00 0.00 0.00 0.00 0.00 0.00 0.00 0.00
0.00 0.00 0.00 0.00 0.00 0.00 0.00 0.00 0.00 0.00 0.00 0.00 0.00 0.00 0.00 0.00 0.00 0.00 0.00 0.00 0.00 0.00 0.00 0.00 0.01 0.00 0.00 0.01 0.00 0.00 0.00 0.00 0.01 0.01 0.00 0.00 0.00 0.00 0.00 0.00 0.00 0.00 0.00
0.00 0.00 0.00 0.00 0.00 0.00 0.00 0.00 0.00 0.00 0.00 0.00 0.00 0.00 0.00 0.00 0.00 0.00 0.00 0.00 0.00 0.00 0.01 0.01 0.00 0.00 0.00 0.00 0.00 0.00 0.00 0.00 0.00 0.00 0.00 0.00 0.00 0.00 0.00 0.00 0.00 0.00 0.00
0.00 0.00 0.00 0.00 0.00 0.00 0.00 0.00 0.00 0.00 0.00 0.00 0.00 0.00 0.00 0.00 0.00 0.00 0.00 0.00 0.00 0.00 0.00 0.00 0.00 0.00 0.00 0.00 0.00 0.00 0.00 0.00 0.00 0.00 0.00 0.00 0.00 0.00 0.00 0.00 0.00 0.00 0.00
0.00 0.00 0.00 0.00 0.00 0.00 0.00 0.00 0.00 0.00 0.00 0.00 0.00 0.00 0.00 0.00 0.00 0.00 0.00 0.00 0.00 0.00 0.00 0.00 0.00 0.00 0.00 0.00 0.00 0.00 0.00 0.00 0.00 0.00 0.00 0.00 0.00 0.00 0.00 0.00 0.00 0.00 0.00
0.00 0.00 0.00 0.00 0.00 0.00 0.00 0.00 0.00 0.00 0.01 0.01 0.00 0.00 0.00 0.00 0.00 0.00 0.01 0.00 0.01 0.01 0.02 0.02 0.00 0.00 0.00 0.00 0.00 0.00 0.00 0.00 0.00 0.00 0.00 0.00 0.00 0.00 0.00 0.00 0.00 0.00 0.00
0.01 0.00 0.00 0.00 0.00 0.00 0.00 0.00 0.00 0.00 0.00 0.00 0.00 0.00 0.00 0.00 0.00 0.00 0.00 0.00 0.00 0.00 0.00 0.00 0.00 0.01 0.00 0.00 0.00 0.00 0.00 0.00 0.00 0.00 0.00 0.00 0.00 0.00 0.00 0.00 0.00 0.00 0.00
MSLP
1006.39 1006.91 1007.62 1008.18 1009.00 1009.66 1010.06 1010.37 1010.87 1011.16 1011.50 1011.60 1012.14 1012.58 1012.98 1013.42 1014.08 1014.52 1014.77 1014.90 1015.22 1015.65 1015.90 1016.32 1016.68 1016.90 1016.83 1016.77 1016.81 1017.15 1017.53 1017.76 1018.05 1017.82 1017.65 1017.69 1018.01 1018.42 1018.94 1018.90 1019.14 1019.46 1019.83
1005.11 1006.13 1006.86 1007.58 1008.12 1008.72 1009.28 1009.57 1010.03 1010.48 1010.91 1011.23 1011.58 1012.11 1012.52 1012.99 1013.47 1013.84 1014.07 1014.27 1014.41 1014.81 1015.30 1015.82 1016.18 1016.46 1016.40 1016.61 1016.73 1016.83 1017.08 1017.09 1017.40 1017.65 1017.78 1017.93 1017.73 1017.72 1017.84 1018.27 1018.40 1018.43 1018.83
1004.34 1005.24 1006.02 1006.64 1007.20 1007.66 1008.28 1008.89 1009.19 1009.70 1010.09 1010.58 1010.96 1011.37 1011.82 1012.15 1012.51 1012.95 1013.48 1013.87 1014.16 1014.55 1015.01 1015.32 1015.61 1015.70 1016.09 1016.18 1016.27 1016.49 1016.64 1016.73 1016.94 1017.22 1017.52 1017.46 1017.80 1018.12 1018.51 1018.56 1018.54 1018.41 1018.09
1002.82 1003.91 1004.82 1005.47 1006.09 1006.73 1007.33 1007.89 1008.42 1008.67 1009.20 1009.53 1010.03 1010.44 1010.89 1011.34 1011.61 1011.95 1012.43 1012.87 1013.35 1013.72 1013.95 1014.25 1014.61 1014.85 1015.24 1015.44 1015.81 1016.19 1016.40 1016.55 1016.59 1016.91 1017.00 1017.11 1017.43 1017.88 1018.12 1018.66 1018.92 1018.59 1018.23
1001.33 1002.30 1003.13 1004.17 1004.93 1005.81 1006.34 1006.77 1007.37 1007.85 1008.11 1008.67 1009.09 1009.57 1009.92 1010.20 1010.56 1011.06 1011.49 1011.97 1012.45 1012.82 1012.97 1013.19 1013.57 1013.72 1013.99 1014.46 1015.09 1015.62 1015.80 1016.12 1016.38 1016.69 1016.81 1016.83 1016.68 1016.50 1017.13 1017.36 1017.71 1017.74 1017.96
999.89 1000.72 1001.92 1002.84 1003.71 1004.47 1005.24 1005.75 1006.38 1006.89 1007.36 1007.87 1008.30 1008.58 1008.87 1009.08 1009.30 1009.80 1010.39 1010.72 1011.06 1011.67 1011.77 1011.79 1011.85 1012.39 1012.94 1013.52 1014.03 1014.21 1014.52 1014.96 1015.45 1015.58 1015.83 1015.89 1015.76 1015.72 1015.90 1016.28 1016.83 1017.43 1017.75
998.99 999.79 1000.59 1001.56 1002.49 1003.34 1004.07 1004.81 1005.45 1005.89 1006.42 1006.83 1007.22 1007.51 1007.67 1007.85 1008.03 1008.50 1009.11 1009.60 1010.23 1010.49 1010.68 1010.88 1011.02 1010.79 1011.27 1012.05 1012.59 1012.83 1013.15 1013.56 1013.66 1014.14 1014.69 1014.75 1014.83 1014.74 1014.81 1015.20 1015.76 1016.22 1016.54
998.24 998.93 999.64 1000.51 1001.46 1002.38 1003.18 1003.85 1004.51 1004.97 1005.30 1005.71 1005.94 1006.16 1006.38 1006.32 1006.76 1007.38 1008.13 1008.82 1009.22 1009.17 1009.20 1009.27 1009.75 1010.20 1010.64 1010.80 1011.12 1011.85 1012.04 1012.16 1012.67 1013.29 1013.38 1013.60 1014.07 1014.50 1014.55 1015.40 1015.25 1015.63 1016.47
997.47 998.02 998.77 999.52 1000.34 1001.26 1001.95 1002.61 1003.29 1003.95 1004.31 1004.43 1004.78 1005.04 1005.12 1005.17 1005.74 1006.45 1007.48 1007.97 1007.87 1007.51 1007.74 1008.36 1008.29 1008.64 1009.13 1009.82 1010.53 1010.84 1011.38 1011.27 1011.69 1011.94 1012.31 1012.68 1013.01 1013.49 1014.46 1015.36 1016.08 1015.96 1015.58
996.64 997.31 998.08 998.76 999.38 1000.01 1000.73 1001.51 1002.26 1002.81 1003.16 1003.67 1003.76 1003.84 1004.23 1004.56 1004.98 1005.72 1006.62 1006.96 1006.81 1006.67 1006.87 1005.57 1005.65 1006.53 1007.53 1008.64 1009.07 1009.29 1009.75 1009.72 1010.62 1011.29 1011.96 1012.07 1012.06 1012.41 1012.31 1013.43 1014.57 1015.85 1015.60
995.64 996.46 997.19 997.78 998.40 999.07 999.93 1000.70 1001.39 1001.97 1002.46 1002.76 1002.81 1003.08 1003.37 1003.60 1003.95 1004.62 1005.53 1005.49 1005.08 1005.47 1005.24 1004.83 1005.77 1006.38 1006.90 1007.47 1008.13 1008.46 1007.74 1008.76 1009.37 1010.04 1010.61 1011.08 1010.92 1011.17 1012.78 1012.76 1013.66 1014.72 1015.14
995.11 995.63 996.40 997.11 997.80 998.39 999.18 999.96 1000.61 1001.33 1001.75 1001.95 1002.27 1002.32 1002.33 1002.62 1003.11 1003.83 1004.76 1004.94 1004.93 1005.35 1005.21 1005.37 1005.19 1005.28 1005.67 1006.45 1007.27 1007.10 1007.59 1007.97 1008.46 1009.30 1009.69 1009.81 1009.33 1009.99 1011.33 1012.14 1012.50 1013.53 1014.06
994.83 995.18 995.74 996.49 997.22 997.92 998.72 999.65 1000.27 1000.92 1001.25 1001.46 1001.62 1001.68 1001.80 1001.84 1002.13 1002.86 1003.75 1004.32 1004.84 1004.98 1005.09 1005.39 1005.42 1005.50 1005.63 1006.33 1006.15 1006.03 1006.49 1007.61 1008.39 1009.03 1009.72 1009.95 1008.05 1008.26 1010.46 1011.60 1012.30 1013.09 1013.70
994.66 994.93 995.44 996.08 996.79 997.55 998.39 999.40 1000.11 1000.42 1000.88 1001.04 1001.04 1001.19 1001.28 1001.60 1001.85 1001.65 1002.95 1003.66 1003.93 1004.05 1004.21 1004.48 1004.30 1004.77 1005.20 1005.55 1006.07 1006.66 1006.67 1006.92 1007.37 1007.72 1008.13 1008.87 1009.20 1009.43 1010.02 1010.72 1011.81 1012.70 1014.03
994.44 994.69 995.11 995.57 996.36 997.13 998.62 999.53 1000.05 1000.58 1000.92 1000.63 1000.86 1000.77 1001.24 1001.41 1001.85 1002.07 1002.34 1002.64 1002.22 1002.62 1003.31 1003.75 1004.07 1004.51 1004.95 1005.25 1005.54 1005.70 1005.78 1006.04 1006.34 1006.73 1007.24 1008.01 1008.34 1009.01 1009.66 1010.09 1011.11 1012.70 1013.73
994.26 994.41 994.74 994.97 995.64 996.46 998.50 1000.21 1001.07 1001.46 1001.49 1001.01 1000.73 1000.74 1001.86 1002.20 1002.46 1002.32 1002.40 1002.50 1002.34 1002.22 1003.08 1003.30 1003.85 1004.19 1004.71 1004.89 1005.16 1005.32 1005.31 1005.20 1005.07 1005.22 1005.59 1006.08 1007.44 1008.07 1009.01 1010.45 1011.70 1012.65 1013.31
994.17 994.23 994.33 994.78 994.94 995.93 997.38 998.94 1000.68 1002.43 1002.34 1002.12 1002.05 1001.87 1001.86 1002.69 1002.62 1002.72 1002.77 1002.85 1002.84 1002.71 1002.97 1003.50 1003.95 1004.26 1004.67 1004.80 1005.14 1005.12 1005.01 1004.99 1004.75 1004.53 1004.60 1005.36 1007.02 1007.76 1009.16 1010.33 1011.34 1012.06 1012.62
994.05 994.25 993.91 994.25 994.50 995.24 996.30 997.33 998.56 1000.20 1001.35 1002.29 1002.97 1002.92 1003.15 1002.95 1003.01 1003.00 1002.91 1002.77 1003.29 1003.46 1003.84 1004.19 1004.51 1004.64 1004.75 1004.99 1005.12 1005.36 1005.35 1005.26 1005.60 1006.01 1005.81 1005.55 1007.46 1008.05 1009.30 1010.11 1010.78 1011.21 1011.57
994.13 993.81 993.59 993.75 994.14 994.90 996.09 997.06 997.53 998.59 999.80 1001.16 1002.41 1003.16 1003.51 1003.26 1003.21 1002.95 1002.71 1002.74 1003.03 1003.29 1003.83 1004.17 1004.40 1004.44 1004.48 1004.85 1005.05 1005.17 1005.29 1005.46 1005.70 1005.68 1005.86 1006.79 1007.50 1008.08 1008.82 1009.66 1010.30 1010.51 1010.76
994.64 994.83 994.59 994.88 995.09 995.70 996.40 996.99 997.66 998.57 999.52 1000.29 1000.95 1002.05 1002.84 1003.14 1003.28 1003.03 1002.88 1002.94 1002.96 1003.07 1003.46 1003.75 1003.84 1003.97 1004.07 1004.39 1004.87 1004.95 1005.11 1005.58 1005.91 1006.21 1006.50 1006.90 1007.41 1007.66 1008.34 1008.86 1009.25 1009.83 1010.24
995.28 995.28 995.13 995.34 995.63 996.20 996.63 997.44 998.00 998.92 999.74 1000.24 1001.19 1002.03 1002.18 1002.31 1002.27 1002.59 1002.88 1003.02 1002.77 1002.54 1002.66 1003.21 1003.24 1003.40 1004.07 1004.28 1004.78 1005.01 1005.38 1005.25 1005.84 1006.61 1006.43 1006.65 1007.33 1007.70 1007.67 1008.08 1008.44 1009.11 1009.69
995.34 995.37 995.45 995.70 996.51 997.21 997.77 998.39 998.88 999.31 999.95 1000.63 1001.36 1002.23 1002.46 1002.35 1002.36 1002.51 1002.72 1002.86 1002.38 1002.67 1002.61 1003.09 1003.46 1003.34 1003.66 1004.17 1004.61 1004.73 1005.14 1005.60 1006.08 1006.46 1006.76 1006.66 1006.65 1006.90 1007.23 1007.52 1007.95 1008.32 1009.05
995.10 995.57 995.79 996.52 997.26 997.86 998.24 998.81 999.33 999.69 1000.11 1000.86 1001.57 1002.01 1002.19 1002.40 1002.43 1002.42 1002.76 1002.86 1002.59 1002.48 1002.78 1003.25 1003.69 1003.69 1003.75 1003.99 1004.27 1004.34 1004.50 1004.88 1005.40 1005.89 1006.13 1006.25 1006.37 1006.76 1007.07 1007.38 1007.72 1008.13 1008.63
996.80 997.28 997.73 998.26 998.69 999.14 999.55 999.78 1000.38 1000.61 1000.88 1001.33 1001.67 1001.85 1001.69 1001.87 1001.89 1002.25 1002.69 1002.72 1002.72 1002.72 1002.88 1003.16 1003.39 1003.60 1003.96 1003.78 1004.23 1004.28 1004.23 1004.21 1004.38 1004.90 1005.42 1005.92 1006.27 1006.46 1006.83 1007.41 1007.72 1008.08 1008.46
999.01 999.37 999.38 999.97 1000.63 1000.85 1001.37 1001.65 1002.10 1002.48 1002.55 1002.59 1002.85 1003.37 1003.47 1002.96 1002.96 1003.11 1002.51 1002.34 1002.33 1002.51 1002.70 1002.79 1003.00 1003.31 1003.58 1003.67 1003.72 1004.02 1004.56 1004.26 1004.08 1004.42 1004.80 1005.05 1005.62 1006.30 1006.69 1007.15 1007.61 1008.03 1008.43
1000.99 1001.32 1001.63 1001.96 1002.44 1002.85 1003.32 1003.49 1003.58 1003.63 1003.91 1004.42 1004.75 1004.91 1004.97 1004.83 1004.79 1004.91 1004.93 1004.44 1004.01 1003.70 1002.67 1002.59 1002.81 1003.20 1003.24 1003.15 1003.64 1004.26 1004.66 1004.40 1004.94 1005.01 1004.87 1005.34 1005.76 1006.28 1006.77 1007.18 1007.45 1007.81 1008.16
Thickness
5851 5850 5847 5846 5842 5838 5835 5833 5830 5828 5827 5827 5825 5823 5820 5816 5811 5808 5806 5806 5803 5800 5800 5795 5792 5790 5789 5789 5787 5782 5777 5772 5759 5765 5771 5770 5764 5760 5753 5751 5747 5743 5738
5858 5853 5850 5847 5846 5842 5837 5836 5834 5830 5829 5827 5826 5822 5819 5815 5812 5809 5808 5808 5807 5803 5800 5795 5792 5792 5791 5789 5786 5783 5779 5778 5770 5762 5768 5766 5766 5764 5762 5757 5751 5747 5743
5861 5857 5853 5850 5848 5846 5843 5840 5839 5835 5832 5830 5827 5823 5821 5819 5817 5814 5809 5806 5804 5800 5796 5795 5794 5795 5789 5789 5787 5784 5781 5779 5776 5768 5763 5766 5761 5758 5751 5748 5747 5744 5744
5871 5865 5858 5856 5853 5851 5848 5845 5842 5841 5836 5835 5833 5829 5827 5824 5821 5818 5814 5810 5807 5804 5803 5802 5799 5797 5793 5791 5787 5781 5778 5777 5774 5768 5764 5760 5758 5753 5750 5739 5732 5737 5737
5878 5874 5869 5864 5860 5855 5853 5851 5848 5845 5844 5841 5838 5835 5833 5831 5828 5823 5819 5815 5810 5807 5808 5807 5805 5805 5802 5797 5789 5781 5779 5774 5770 5764 5761 5757 5754 5754 5746 5744 5736 5735 5733
5886 5883 5878 5872 5867 5863 5858 5856 5852 5849 5847 5844 5841 5840 5838 5839 5837 5832 5828 5825 5823 5816 5815 5817 5819 5813 5807 5799 5793 5792 5788 5778 5769 5765 5762 5759 5758 5754 5749 5743 5737 5726 5715
5888 5888 5885 5879 5873 5869 5865 5860 5855 5852 5851 5849 5847 5847 5846 5847 5846 5841 5836 5834 5826 5825 5824 5822 5821 5826 5820 5811 5802 5797 5793 5787 5784 5775 5762 5757 5753 5756 5755 5746 5739 5730 5721
5889 5889 5889 5884 5878 5874 5869 5863 5859 5857 5854 5853 5854 5855 5855 5858 5854 5847 5840 5836 5832 5833 5833 5833 5826 5821 5816 5815 5811 5801 5797 5793 5787 5778 5772 5765 5754 5746 5743 5730 5731 5728 5718
5890 5891 5890 5888 5882 5878 5873 5870 5866 5861 5858 5859 5859 5859 5860 5862 5858 5851 5841 5836 5836 5840 5838 5832 5833 5824 5820 5812 5804 5799 5790 5790 5782 5777 5770 5766 5756 5743 5726 5713 5708 5704 5706
5892 5892 5891 5889 5886 5883 5879 5874 5871 5867 5863 5862 5862 5864 5862 5861 5859 5852 5843 5839 5836 5837 5833 5847 5847 5838 5825 5809 5804 5799 5791 5794 5780 5771 5756 5751 5748 5736 5729 5723 5707 5689 5689
5898 5894 5890 5891 5888 5887 5881 5877 5872 5867 5864 5861 5862 5862 5861 5861 5860 5852 5844 5845 5846 5839 5837 5843 5834 5827 5819 5807 5798 5794 5800 5791 5783 5771 5757 5740 5735 5731 5713 5717 5703 5690 5679
5890 5890 5889 5887 5886 5884 5879 5875 5871 5865 5861 5860 5857 5857 5862 5861 5857 5850 5841 5839 5839 5831 5830 5829 5830 5825 5819 5807 5795 5794 5785 5779 5772 5761 5751 5741 5718 5702 5712 5705 5701 5686 5679
5883 5883 5883 5882 5880 5878 5873 5867 5863 5860 5857 5856 5854 5854 5854 5857 5856 5848 5840 5835 5830 5825 5825 5818 5815 5812 5806 5797 5795 5791 5778 5765 5756 5746 5738 5731 5730 5716 5711 5700 5689 5678 5675
5876 5877 5877 5875 5872 5871 5869 5865 5860 5858 5854 5853 5852 5850 5851 5850 5849 5852 5841 5833 5829 5825 5820 5816 5816 5807 5800 5792 5782 5772 5767 5757 5749 5744 5736 5730 5722 5715 5710 5697 5681 5675 5661
5870 5871 5871 5871 5867 5865 5856 5857 5860 5852 5851 5853 5851 5850 5844 5844 5842 5839 5836 5834 5834 5828 5816 5809 5805 5798 5790 5782 5772 5766 5760 5750 5741 5736 5727 5717 5713 5705 5698 5688 5678 5663 5654
5860 5863 5865 5866 5865 5862 5848 5841 5828 5828 5828 5832 5836 5841 5830 5825 5821 5821 5819 5817 5816 5815 5808 5801 5792 5786 5777 5772 5764 5757 5750 5743 5737 5730 5724 5715 5699 5697 5690 5675 5664 5657 5651
5851 5855 5858 5856 5859 5853 5846 5838 5825 5812 5809 5811 5813 5815 5816 5808 5807 5804 5802 5799 5798 5800 5794 5787 5779 5773 5766 5759 5751 5745 5739 5733 5729 5717 5702 5693 5695 5690 5676 5666 5660 5658 5655
5845 5843 5851 5849 5851 5847 5844 5838 5832 5820 5814 5807 5796 5796 5791 5793 5792 5790 5789 5790 5784 5781 5773 5766 5759 5754 5748 5743 5739 5731 5725 5719 5711 5697 5685 5698 5675 5677 5669 5662 5660 5659 5658
5831 5836 5842 5843 5843 5838 5833 5827 5824 5820 5814 5801 5789 5783 5778 5776 5776 5778 5781 5779 5774 5769 5761 5754 5749 5744 5739 5732 5726 5720 5714 5706 5694 5693 5687 5679 5674 5671 5666 5664 5662 5660 5658
5818 5814 5821 5821 5821 5819 5816 5810 5808 5804 5799 5795 5791 5781 5772 5769 5767 5768 5767 5764 5760 5757 5751 5745 5741 5738 5733 5727 5718 5713 5708 5696 5687 5680 5678 5677 5674 5673 5670 5668 5666 5658 5654
5797 5800 5803 5805 5803 5801 5799 5795 5792 5785 5779 5777 5769 5761 5754 5761 5761 5757 5751 5748 5748 5748 5744 5737 5734 5731 5722 5718 5711 5707 5701 5697 5689 5679 5681 5680 5675 5672 5674 5670 5665 5659 5654
5783 5784 5784 5783 5782 5778 5776 5772 5768 5765 5760 5756 5753 5745 5740 5748 5745 5741 5737 5735 5738 5733 5733 5726 5720 5721 5716 5709 5705 5703 5697 5690 5683 5678 5673 5675 5675 5672 5668 5666 5662 5657 5653
5766 5765 5766 5766 5764 5758 5756 5754 5750 5750 5748 5744 5739 5735 5733 5730 5728 5727 5722 5719 5721 5721 5718 5713 5707 5706 5706 5702 5698 5697 5695 5690 5683 5676 5672 5670 5670 5664 5660 5656 5653 5650 5646
5735 5736 5734 5733 5732 5730 5731 5733 5730 5727 5729 5726 5724 5722 5722 5720 5720 5712 5705 5705 5705 5704 5702 5700 5697 5693 5689 5691 5687 5685 5686 5687 5684 5677 5669 5662 5658 5655 5650 5645 5643 5641 5639
5699 5699 5705 5701 5698 5700 5699 5700 5698 5698 5699 5700 5697 5693 5693 5697 5693 5687 5691 5694 5694 5692 5691 5690 5688 5684 5679 5678 5679 5676 5668 5671 5673 5668 5663 5660 5652 5644 5642 5638 5635 5632 5630
5664 5664 5666 5667 5667 5667 5667 5670 5671 5672 5673 5667 5665 5664 5662 5662 5659 5657 5655 5660 5663 5667 5677 5680 5677 5672 5670 5669 5663 5660 5654 5657 5650 5650 5649 5644 5639 5633 5629 5626 5626 5623 5621